Sierra Vista, AZ

12:01 PM MST on June 22, 2017 (GMT -0700)
Sierra Vista Municipal-Libby Army Air Field

Weather History for KFHU - March, 2014

Change the Weather History Date:

Saturday, March 8, 2014

  Actual Average Record
Temperature  
Mean Temperature 56 °F -  
Max Temperature 66 °F 65 °F 84 °F (1989)
Min Temperature 46 °F 42 °F 30 °F (2012)
Degree Days  
Heating Degree Days 9    
Growing Degree Days 6 (Base 50)    
Moisture  
Dew Point 33 °F    
Average Humidity 47    
Maximum Humidity 83    
Minimum Humidity 17    
Precipitation  
Precipitation 0.00 in - - ()
Sea Level Pressure  
Sea Level Pressure 29.99 in    
Wind  
Wind Speed 8 mph (SSW)    
Max Wind Speed 21 mph    
Max Gust Speed 31 mph    
Visibility 10 miles    
Events Rain    
Averages and records for this station are not official NWS values.
T = Trace of Precipitation, MM = Missing Value Source: NWS Daily Summary

Daily Weather History Graph

Daily Weather History Graph

Search for Another Location

Airport or City:

Trip Planner

Search our weather history database for the weather conditions in past years. The results will help you decide how hot, cold, wet, or windy it might be!

Date:

Astronomy

Mar. 08, 2014 Rise Set
Actual Time 6:39 AM MST 6:24 PM MST
Civil Twilight 6:15 AM MST 6:48 PM MST
Nautical Twilight 5:47 AM MST 7:17 PM MST
Astronomical Twilight 5:19 AM MST 7:45 PM MST
Moon 11:47 AM MST (3/8) 1:02 AM MST (3/8)
Length of Visible Light 12h 33m
Length of Day
11h 44m
First Quarter, 52% of the Moon is Illuminated
Mar 8
First Quarter
Mar 16
Full
Mar 23
Last Quarter
Mar 30
New
Apr 7
First Quarter

Hourly Weather History & Observations

Time (MST) Temp. Windchill Dew Point Humidity Pressure Visibility Wind Dir Wind Speed Gust Speed Precip Events Conditions
12:56 AM 52.0 °F - 37.0 °F 57% 29.90 in 10.0 mi WSW 9.2 mph - N/A   Clear
1:56 AM 51.1 °F - 36.0 °F 56% 29.90 in 10.0 mi WSW 6.9 mph - N/A   Clear
2:56 AM 51.1 °F - 36.0 °F 56% 29.89 in 10.0 mi SW 9.2 mph - N/A   Clear
3:56 AM 48.9 °F - 35.1 °F 59% 29.90 in 10.0 mi Calm Calm - N/A   Clear
4:56 AM 46.9 °F - 35.1 °F 63% 29.93 in 10.0 mi WSW 3.5 mph - N/A   Clear
5:56 AM 48.9 °F - 35.1 °F 59% 29.95 in 10.0 mi SW 8.1 mph - N/A   Clear
6:56 AM 48.9 °F - 35.1 °F 59% 29.98 in 10.0 mi WSW 9.2 mph - N/A   Clear
7:56 AM 55.9 °F - 36.0 °F 47% 29.98 in 10.0 mi WSW 5.8 mph - N/A   Clear
8:56 AM 57.9 °F - 33.1 °F 39% 29.99 in 10.0 mi Calm Calm - N/A   Clear
9:56 AM 61.0 °F - 30.9 °F 32% 30.00 in 10.0 mi Calm Calm - N/A   Clear
10:56 AM 63.0 °F - 28.0 °F 27% 30.00 in 10.0 mi WSW 3.5 mph - N/A   Clear
11:56 AM 64.9 °F - 24.1 °F 21% 29.99 in 10.0 mi SSW 8.1 mph - N/A   Clear
12:56 PM 66.0 °F - 19.0 °F 17% 29.96 in 10.0 mi Variable 5.8 mph - N/A   Mostly Cloudy
1:56 PM 66.0 °F - 25.0 °F 21% 29.94 in 10.0 mi Variable 4.6 mph - N/A   Mostly Cloudy
2:56 PM 64.0 °F - 26.1 °F 24% 29.93 in 10.0 mi NNE 11.5 mph - N/A   Mostly Cloudy
3:56 PM 62.1 °F - 27.0 °F 26% 29.94 in 10.0 mi NNE 16.1 mph 23.0 mph N/A   Overcast
4:56 PM 60.1 °F - 30.0 °F 32% 29.96 in 10.0 mi NNE 19.6 mph 27.6 mph N/A   Mostly Cloudy
5:56 PM 57.9 °F - 28.0 °F 32% 29.99 in 10.0 mi NNE 11.5 mph - N/A   Overcast
6:56 PM 57.9 °F - 26.1 °F 30% 30.02 in 10.0 mi ESE 6.9 mph - N/A   Overcast
7:56 PM 48.9 °F - 41.0 °F 74% 30.09 in 10.0 mi SE 20.7 mph 31.1 mph 0.00 in Rain Light Rain
8:56 PM 46.9 °F - 42.1 °F 83% 30.12 in 9.0 mi SE 12.7 mph - 0.00 in Rain Light Rain
9:56 PM 46.9 °F - 39.9 °F 77% 30.14 in 10.0 mi SSE 13.8 mph - 0.00 in   Clear
10:56 PM 46.9 °F - 39.0 °F 74% 30.12 in 10.0 mi SSE 15.0 mph - N/A   Clear
11:56 PM 46.0 °F 38.5 °F 37.9 °F 73% 30.12 in 10.0 mi SSE 19.6 mph - N/A   Clear